Location: Berkeley
(37.8716°N, 122.2727°W)
Time: 00:25:11
(UTC-07:00)

Envisat - Pass Details

Date: 24 February 2019
Orbit: 764 x 766 km, 98.2° (Epoch: 24 March)

Event Time Altitude Azimuth Distance (km) Brightness Sun altitude
Rises 18:21:34 0° 151° (SSE) 3,219 6.0 -5.5°
Reaches altitude 10° 18:23:55 10° 145° (SE) 2,297 5.2 -6.0°
Maximum altitude 18:28:46 48° 72° (ENE) 996 3.2 -6.9°
Drops below altitude 10° 18:33:38 10° 359° (N) 2,310 5.4 -7.9°
Sets 18:36:01 0° 354° (N) 3,240 6.3 -8.4°
